192  
NZUS99 KSGF 230707  
HRRSGF  
 
HOURLY WEATHER  
NATIONAL WEATHER SERVICE SPRINGFIELD MO  
200 AM CDT SAT SEP 23 2017  
   
.....SGF CWA...
 
 
 
CITY SKY/WX TMP DP RH WIND PRES REMARKS  
SPRINGFIELD CLEAR 71 67 87 SE8 30.01S  
JOPLIN CLEAR 73 68 84 SE6 29.98F  
WEST PLAINS CLEAR 68 64 87 CALM 30.06R  
ROLLA CLEAR 70 64 81 S6 30.03S  
OSAGE BEACH CLEAR 71 66 84 S3 30.02S  
BRANSON CLEAR 72 64 78 SE7 30.03S  
   
.....SURROUNDING SGF CWA...
 
 
 
CITY SKY/WX TMP DP RH WIND PRES REMARKS  
CHANUTE CLEAR 71 67 87 SE7 29.96S  
PARSONS CLEAR 74 66 76 SE5 29.97R  
COFFEYVILLE CLEAR 70 67 90 SE5 29.95S  
EMPORIA CLOUDY 71 65 81 S9 29.94S  
GROVE OK CLEAR 70 68 94 CALM 29.99R  
ROGERS AR CLEAR 72 68 87 SE8 30.02S  
SILOAM SPRINGS CLEAR 70 66 87 E3 30.01S  
HARRISON AR CLEAR 70 66 87 S3 30.04R  
NEAR YELLVILLE CLEAR 70 67 90 CALM 30.02R  
   
.....KANSAS AND MISSOURI...
 
 
 
CITY SKY/WX TMP DP RH WIND PRES REMARKS  
KANSAS CTY INT CLEAR 71 68 90 S9 29.97R  
DOWNTOWN KC CLEAR 76 69 79 S3 29.95S  
COLUMBIA CLEAR 73 67 81 SE8 30.01R  
SEDALIA CLEAR 72 69 90 S9 30.00S  
ST JOSEPH CLEAR 71 69 93 S5 29.95S  
ST LOUIS CLEAR 75 65 70 E5 30.02S  
SPIRIT OF STL CLEAR 67 66 97 CALM 30.01R  
KIRKSVILLE CLEAR 70 64 81 S3 30.00S  
WICHITA PTCLDY 74 68 81 S13 29.92S  
TOPEKA CLEAR 73 69 87 SE6 29.94R  
OLATHE CLEAR 70 68 93 CALM 29.97S  
   
.....TENNESSEE...
 
 
 
CITY SKY/WX TMP DP RH WIND PRES REMARKS  
MEMPHIS CLEAR 76 69 79 CALM 29.98S  
NASHVILLE CLEAR 71 68 90 CALM 30.03S  
   
.....ARKANSAS....
 
 
 
CITY SKY/WX TMP DP RH WIND PRES REMARKS  
FAYETTEVILLE CLEAR 65 65 100 CALM 30.01S  
FT SMITH CLEAR 74 70 87 E5 29.96S  
LITTLE ROCK CLEAR 73 72 96 CALM 29.97S  
   
.....OKLAHOMA....
 
 
 
CITY SKY/WX TMP DP RH WIND PRES REMARKS  
TULSA PTCLDY 76 66 71 S8 29.93S  
PONCA CITY CLEAR 77 65 66 S14 29.92S  
MCALESTER CLEAR 74 66 76 SE5 29.95F  
OKLAHOMA CITY CLEAR 73 64 73 S7 29.93S  
   
.....IOWA.........
 
 
 
CITY SKY/WX TMP DP RH WIND PRES REMARKS  
DES MOINES CLEAR 74 67 78 S7 29.95R  
QUAD CITIES CLEAR 74 64 71 S8 30.00S  
   
.....ILLINOIS.....
 
 
 
CITY SKY/WX TMP DP RH WIND PRES REMARKS  
QUINCY CLEAR 72 62 71 SE5 30.01R  
CHICAGO CLEAR 75 66 73 S5 30.03F  
 
CLICK HERE TO GO TO PREVIOUS BULLETINS.

The Nexlab MO Page
The Nexlab KS Page Main Text Page